LiveATC.Net - Listen to live air traffic control over the Internet!


ICAO: KBAZ  IATA: BAZ   Airport: New Braunfels Municipal Airport
City: New Braunfels   State/Province: Texas
Country: United States   Continent: North America
KBAZ METAR Weather: KBAZ 181051Z AUTO 02015KT 10SM CLR 12/05 A3010 RMK AO2 SLP189 T01170050
KBAZ Flight Activity (FlightAware)
KBAZ Airport Info   (iFlightPlanner)
KBAZ VFR Sectional Chart   (iFlightPlanner) 
KBAZ IFR Low Chart   (iFlightPlanner) 

KBAZ Tower
Feed Status: UP   Listeners: 0
Listen in your browser - HTML5 player (in browser, HTML5)
Click here to listen with your own player (launches your MP3 player)
Archive Access: KBAZ Tower
FacilityFrequency
New Braunfels Tower127.050

NOTICE

Unauthorized use prohibited. See LiveATC.net Terms of Service


Airport/ARTCC Code
Frequency Search
(e.g., 124.400, 128.75)
Site-wide search
 


Browse Feeds
Top 50 Feeds
HF Oceanic Feeds
Coverage Map
Bad Weather Areas

LiveATC FAQ
Offer LiveATC feed
Contact LiveATC.net
Press Inquiries

LiveATC on iPhone
LiveATC on Android

Windows Phone
Windows 8/10

LiveATC Mobile
(Mobile browser)

ATC Audio Archives
Interesting Recordings

LiveATC Forums


Home Page
About LiveATC.net
Make a Donation
Terms of Use
Privacy Policy

Canadian Air Freqs

AIRMETs/SIGMETs

FAA Airport Status
Nat'l Airspace Status
Arrival Demand Charts


Server Software By:
Icecast.org
Liquidsoap